Location: Alsip
(41.6689°N, 87.7387°W)
Time: 15:16:53
(UTC+00:00)

Cosmos 2228 Rocket - Pass Details

Date: 14 July 2020
Orbit: 617 x 653 km, 82.5° (Epoch: 12 August)

Event Time Altitude Azimuth Distance (km) Brightness Sun altitude
Rises 05:05:06 0° 354° (N) 2,974 7.9 -25.6°
Reaches altitude 10° 05:07:23 10° 356° (N) 2,055 6.7 -25.7°
Enters shadow 05:11:33 68° 39° (NE) 697 3.3 -25.9°
